Location: Passau
(48.5830°N, 13.4830°E)
Time: 21:33:24
(UTC+02:00)

Courier 1B Rocket - Visible Passes

Search period start: 27 July 2021 00:00
Search period end: 06 August 2021 00:00
Orbit: 920 x 1202 km, 28.2° (Epoch: 26 July)

Date Brightness Start Highest point End Pass type
(mag) Time Alt. Az. Time Alt. Az. Time Alt. Az.
31 Jul 6.8 04:24:00 10° S 04:25:16 11° S 04:26:33 10° SSE visible
02 Aug 6.8 04:14:50 11° SSW 04:16:04 11° S 04:17:57 10° SSE visible
04 Aug 6.8 04:06:51 11° S 04:06:51 11° S 04:08:43 10° S visible
